STARLINK-35357, 65799

Orbit data source: Space-Track

STARLINK-35357, 65799 is a payload satellite owned by SpaceX/Seattle (US) in SSO that was launched on Fri, 26 Sep 2025 UTC via an FALCON 9 launch vehicle from the Air Force Western Test Range (AFWTR). Payload-class satellites include a variety of spacecraft equipped with specific instruments for various scientific and technological missions. These include communications satellites like Starlink; space stations such as the ISS; scientific satellites like the Hubble; Earth observation satellites from companies like Planet Labs, Umbra, and HawkEye 360; GPS; miniature CubeSats for education and research; and military/defense satellites.

Loading next visibility...
Identifier
65799, 2025-218J
Orbit
SSO
Country
Flag of USUS
Related business
Manufacturer
SpaceX/Seattle
Mission
Operational Commercial Communications
Bus & Motor
STARLINK V2MO, Unknown motor
Mass
575 kg wet, ~530 kg dry
Launch date (UTC)
2025-09-26 (1 month ago)
Launch vehicle
FALCON 9
Launch site
Air Force Western Test Range (AFWTR)
Object type
Payload
Rocket body
Debris
Shape & HBR
Box + 2 Pan, 17.7 m
Radar Cross Section
36.964 m²

Expand to show TLE details & history
Last TLE update: 2 days ago

TLE from 2 days ago
0 STARLINK-35357
1 65799U 25218J   25312.57148701  .00011911  00000-0  82804-3 0  9998
2 65799  97.6031 173.5450 0001615  94.5995 265.5417 15.05660553  6746
Epoch: 2025-11-08T13:42Z
TLE epoch observation values (Epoch: 2025-11-08T13:42:56.477Z)
Latitude
0.00004°
Longitude
-80.18951°
Altitude
552.631 km
Speed
7.585 km/s
True Right ascension
11h 34m 10s
True Declination
0° 00' 00"
Sunlit
Object was in daylight at epoch
Visualization orbit readout
Latitude
Unknown
Longitude
Unknown
Altitude
Unknown
Speed
Unknown
Apparent Right ascension
Unknown
Apparent Declination
Unknown
Sunlit
N/A
Visualization observer readout
Local Sidereal Time
04:44:50
Azimuth
Unknown
Elevation
Unknown
Doppler factor
Unknown
Orbital elements
Apogee altitude
547.591 km
Perigee altitude
545.354 km
Semi-major axis
6,924.609 km
Eccentricity
0.00016
Inclination
97.6031°
RAAN
173.545°
Arg. of periapsis
94.5995°
True anomaly
265.52325°
Mean anomaly
265.5417°
Eccentric anomaly
265.53247°
Mean motion
3.76661 °/min
Orbital period
95.58 mins
BSTAR
0.00082804
Loading maneuver chart data...
Computing Atmospheric mass density...
Loading historical data...
Loading historical data...
Loading historical data...
Loading historical data...
Loading historical data...
Loading historical data...
Loading historical data...

Documentation

Showing up to 5 results
|